GW5982 Weather Reports


time (UTC)temp
C
wind
direction
speed
KPH
gust
KPH
rain 1hr
cm
rain 24hr
cm
rain mn
cm
humidity
%
barometer
mb
20260505070512 6 218 8.0 16.1 0.00 0.18 0.00 86 1008.2
20260505070028 6 211 6.4 12.9 0.00 0.18 0.00 86 1008.1
20260505065509 6 224 9.7 12.9 0.00 0.18 0.00 86 1008.1
20260505065006 6 219 8.0 12.9 0.00 0.18 0.00 86 1008.0
20260505064524 6 232 6.4 12.9 0.00 0.18 0.00 86 1007.9
20260505064014 6 218 6.4 12.9 0.00 0.20 0.00 85 1007.8
20260505063509 6 182 6.4 12.9 0.00 0.20 0.00 85 1007.7
20260505063010 6 203 6.4 17.7 0.00 0.23 0.00 85 1007.7
20260505062505 6 209 8.0 17.7 0.00 0.25 0.00 85 1007.7
20260505062005 6 221 8.0 17.7 0.00 0.25 0.00 85 1007.6
20260505061519 6 246 11.3 17.7 0.00 0.25 0.00 85 1007.6
20260505061007 6 220 8.0 14.5 0.00 0.25 0.00 85 1007.5
20260505060508 6 214 9.7 14.5 0.00 0.25 0.00 84 1007.7
20260505060017 6 198 8.0 16.1 0.00 0.28 0.00 84 1007.6
20260505055509 6 224 9.7 19.3 0.00 0.28 0.00 84 1007.5
20260505055009 6 215 11.3 19.3 0.00 0.28 0.00 84 1007.5
20260505054524 6 231 11.3 17.7 0.00 0.28 0.00 83 1007.4
20260505054016 6 215 9.7 17.7 0.00 0.28 0.00 83 1007.4
20260505053512 6 168 8.0 16.1 0.00 0.30 0.00 83 1007.2
20260505053026 7 188 8.0 16.1 0.00 0.30 0.00 82 1007.3
20260505052510 7 221 6.4 14.5 0.00 0.33 0.00 82 1007.3
20260505052009 7 256 8.0 19.3 0.00 0.36 0.00 82 1007.3
20260505051528 7 219 9.7 19.3 0.00 0.36 0.00 81 1007.2
20260505051010 7 203 9.7 19.3 0.00 0.36 0.00 81 1007.2
20260505050506 7 259 9.7 19.3 0.00 0.36 0.00 81 1007.2
20260505041526 7 250 12.9 25.7 0.00 0.76 0.00 79 1006.7
20260505041009 7 259 19.3 25.7 0.00 0.84 0.00 78 1006.7
20260505040510 7 249 12.9 25.7 0.00 0.86 0.00 78 1006.6
20260505040025 7 248 14.5 25.7 0.00 0.94 0.00 78 1006.6
20260505035507 8 272 12.9 25.7 0.00 0.99 0.00 77 1006.5
20260505035011 8 249 16.1 27.4 0.00 1.02 0.00 76 1006.4
20260505034517 8 252 16.1 27.4 0.00 1.07 0.00 75 1006.2
20260505034008 8 262 12.9 22.5 0.00 1.09 0.00 74 1006.1
20260505033507 8 205 12.9 30.6 0.00 1.12 0.00 73 1006.1
20260505033023 8 268 14.5 30.6 0.00 1.14 0.00 72 1006.0
20260505032507 8 248 20.9 33.8 0.00 1.14 0.00 71 1006.1
20260505032008 8 254 17.7 33.8 0.00 1.17 0.00 71 1006.1
20260505031526 8 259 17.7 30.6 0.00 1.19 0.00 70 1006.0
20260505031007 8 281 20.9 32.2 0.00 1.19 0.00 70 1005.9
20260505030508 8 251 16.1 35.4 0.00 1.22 0.00 70 1005.8
20260505030028 8 257 19.3 38.6 0.00 1.22 0.00 70 1005.7
20260505025508 8 247 19.3 38.6 0.00 1.22 1.22 70 1005.6
20260505025009 8 290 14.5 35.4 0.00 1.24 1.22 71 1005.5
20260505024528 9 249 20.9 33.8 0.00 1.27 1.22 70 1005.6
20260505024009 9 285 16.1 30.6 0.00 1.27 1.22 71 1005.7
20260505023508 9 255 17.7 30.6 0.00 1.27 1.22 71 1005.6
20260505023028 9 249 17.7 30.6 0.00 1.30 1.22 71 1005.4
20260505022506 9 266 16.1 29.0 0.00 1.30 1.22 71 1005.3
20260505022007 9 281 19.3 32.2 0.00 1.30 1.22 71 1005.2
20260505021520 9 283 17.7 35.4 0.00 1.30 1.22 71 1005.2
20260505021006 9 279 19.3 35.4 0.00 1.32 1.22 71 1005.1
20260505020509 9 255 14.5 27.4 0.00 1.32 1.22 72 1005.1
20260505020026 9 254 14.5 24.1 0.00 1.32 1.22 73 1005.1
20260505015509 9 259 11.3 24.1 0.00 1.35 1.22 73 1005.1
20260505015009 9 252 12.9 25.7 0.00 1.35 1.22 73 1005.0
20260505014528 9 253 11.3 25.7 0.00 1.37 1.22 73 1004.9
20260505014009 9 264 16.1 25.7 0.00 1.37 1.22 73 1004.8
20260505013509 9 252 12.9 20.9 0.00 1.37 1.22 73 1004.7
20260505013011 9 262 12.9 22.5 0.00 1.40 1.22 73 1004.8
20260505012505 9 255 12.9 22.5 0.00 1.40 1.22 73 1004.7
20260505012005 9 255 12.9 22.5 0.00 1.40 1.22 73 1004.6
20260505011542 9 283 12.9 22.5 0.00 1.40 1.22 73 1004.6
20260505011007 9 250 11.3 17.7 0.00 1.42 1.22 72 1004.4
20260505010509 9 252 9.7 22.5 0.00 1.45 1.22 72 1004.4
20260505010022 9 257 12.9 24.1 0.00 1.45 1.22 72 1004.3
20260505005511 10 290 11.3 24.1 0.00 1.50 1.22 71 1004.2
20260505005009 10 261 14.5 24.1 0.00 1.50 1.22 71 1004.1
20260505004506 10 190 14.5 22.5 0.00 1.50 1.22 71 1003.7
20260505004003 10 236 9.7 29.0 0.00 1.52 1.22 70 1003.7
20260505003505 10 278 16.1 29.0 0.00 1.52 1.22 70 1003.8
20260505003009 10 257 11.3 29.0 0.00 1.55 1.22 69 1003.7
20260505002504 10 246 14.5 35.4 0.00 1.57 1.22 69 1003.7
20260505002007 10 270 19.3 35.4 0.00 1.57 1.22 69 1003.6
20260505001515 10 241 19.3 29.0 0.00 1.60 1.22 69 1003.4
20260505001007 10 243 16.1 35.4 0.00 1.63 1.22 68 1003.3
20260505000510 10 285 20.9 35.4 0.00 1.65 1.22 68 1003.1
20260505000026 10 257 14.5 43.5 0.00 1.68 1.22 68 1003.1
20260504235508 10 263 25.7 43.5 0.00 1.68 1.22 68 1003.0
20260504235007 10 261 24.1 35.4 0.00 1.73 1.22 67 1002.8
20260504234528 10 274 19.3 48.3 0.00 1.75 1.22 67 1002.6
20260504234007 11 294 27.4 48.3 0.00 1.78 1.22 66 1002.7
20260504233510 11 248 20.9 43.5 0.00 1.78 1.22 66 1002.7
20260504233026 11 257 22.5 32.2 0.00 1.80 1.22 65 1002.6
20260504232504 11 265 12.9 37.0 0.00 1.85 1.22 65 1002.6
20260504232003 11 298 27.4 38.6 0.00 1.88 1.22 64 1002.3
20260504231514 11 236 27.4 38.6 0.00 1.91 1.22 65 1002.3
20260504231003 11 255 22.5 32.2 0.00 1.93 1.22 65 1002.3
20260504230505 11 255 19.3 37.0 0.00 1.96 1.22 65 1002.2
20260504230017 11 254 14.5 49.9 0.00 1.96 1.22 65 1002.1
20260504225505 11 234 19.3 49.9 0.00 1.96 1.22 64 1001.9
20260504225006 11 234 20.9 40.2 0.00 1.98 1.22 64 1001.8
20260504224520 11 265 17.7 30.6 0.00 2.01 1.22 64 1001.8
20260504224006 11 259 16.1 30.6 0.00 2.01 1.22 63 1001.7
20260504223508 11 267 16.1 37.0 0.00 2.03 1.22 62 1001.6
20260504223026 11 236 19.3 40.2 0.00 2.03 1.22 61 1001.6
20260504222510 11 240 27.4 45.1 0.00 2.06 1.22 61 1001.5
20260504222009 11 251 22.5 53.1 0.00 2.06 1.22 60 1001.4
20260504221525 12 233 24.1 53.1 0.00 2.08 1.22 59 1001.3
20260504221012 12 260 24.1 43.5 0.00 2.11 1.22 58 1001.2
20260504220504 12 227 25.7 48.3 0.00 2.13 1.22 57 1001.2
20260504220014 12 253 22.5 48.3 0.00 2.16 1.22 57 1001.0
20260504215506 12 290 24.1 57.9 0.00 2.16 1.22 55 1001.1
20260504215005 12 261 35.4 57.9 0.00 2.18 1.22 53 1001.3
20260504214516 12 274 27.4 46.7 0.00 2.21 1.22 52 1001.2
20260504214005 12 250 27.4 40.2 0.00 2.24 1.22 50 1001.2
20260504213506 13 255 29.0 40.2 0.00 2.24 1.22 49 1001.1
20260504213022 13 240 24.1 43.5 0.00 2.26 1.22 47 1001.1
20260504212508 13 278 30.6 56.3 0.00 2.29 1.22 45 1001.1
20260504212010 13 239 32.2 56.3 0.00 2.31 1.22 42 1001.0
20260504211524 13 309 29.0 51.5 0.00 2.34 1.22 41 1000.9
20260504211009 13 271 30.6 43.5 0.00 2.34 1.22 41 1000.9
20260504210509 13 263 25.7 46.7 0.00 2.34 1.22 41 1000.7
20260504210026 13 271 29.0 53.1 0.00 2.36 1.22 41 1000.7
20260504205509 13 317 24.1 59.5 0.00 2.39 1.22 39 1000.7
20260504205008 13 269 35.4 59.5 0.00 2.41 1.22 38 1000.8
20260504204514 13 195 29.0 61.2 0.00 2.44 1.22 38 1000.8
20260504204005 14 251 32.2 61.2 0.00 2.46 1.22 36 1000.5
20260504203506 14 251 33.8 49.9 0.00 2.51 1.22 36 1000.4
20260504203019 14 268 27.4 48.3 0.00 2.54 1.22 37 1000.4
20260504202508 15 280 30.6 48.3 0.00 2.59 1.22 36 1000.2
20260504202006 15 283 24.1 53.1 0.00 2.62 1.22 36 1000.3
20260504201522 15 270 29.0 53.1 0.00 2.64 1.22 35 1000.3
20260504201013 15 264 19.3 46.7 0.00 2.67 1.22 36 1000.2
20260504200510 15 289 33.8 46.7 0.00 2.69 1.22 34 1000.2
20260504200026 15 249 24.1 43.5 0.00 2.72 1.22 34 1000.0
20260504195510 15 228 25.7 54.7 0.00 2.74 1.22 34 1000.0
20260504195012 15 264 29.0 54.7 0.00 2.79 1.22 34 999.9
20260504194530 15 274 27.4 54.7 0.00 2.82 1.22 34 999.9
20260504194009 15 267 32.2 54.7 0.00 2.87 1.22 33 999.8
20260504193509 15 264 25.7 51.5 0.00 2.90 1.22 35 999.9
20260504193017 15 249 32.2 51.5 0.00 2.95 1.22 33 999.8
20260504192505 15 277 29.0 61.2 0.00 2.97 1.22 33 999.8
20260504192009 15 263 25.7 61.2 0.00 3.02 1.22 33 999.9
20260504191522 15 278 30.6 46.7 0.00 3.10 1.22 33 999.9
20260504191007 15 250 20.9 61.2 0.00 3.15 1.22 34 999.7
20260504190511 14 286 29.0 61.2 0.00 3.20 1.22 33 999.8
20260504190026 14 266 37.0 61.2 0.00 3.28 1.22 33 999.8
20260504185508 14 257 27.4 61.2 0.00 3.33 1.22 34 999.7
20260504185010 14 265 33.8 57.9 0.00 3.38 1.22 33 1000.0
20260504184525 14 266 27.4 57.9 0.00 3.45 1.22 35 999.8
20260504184011 14 247 25.7 53.1 0.00 3.51 1.22 35 999.6
20260504183514 14 253 25.7 53.1 0.00 3.56 1.22 35 999.8
20260504183027 13 264 32.2 48.3 0.00 3.63 1.22 34 999.7
20260504182513 14 300 20.9 51.5 0.00 3.68 1.22 37 999.8
20260504182011 13 233 25.7 51.5 0.00 3.76 1.22 36 999.9
20260504181526 13 248 27.4 46.7 0.00 3.78 1.22 38 999.8
20260504181007 13 303 32.2 46.7 0.00 3.81 1.22 35 999.8
20260504180510 13 235 24.1 46.7 0.00 3.84 1.22 37 999.8
20260504180021 13 255 30.6 59.5 0.00 3.86 1.22 35 999.7
20260504175509 13 241 32.2 59.5 0.00 3.89 1.22 36 999.7
20260504175012 13 252 27.4 59.5 0.00 3.94 1.22 35 999.9
20260504174524 13 273 27.4 59.5 0.00 3.96 1.22 38 1000.0
20260504174011 13 264 29.0 56.3 0.00 4.01 1.22 37 1000.0
20260504173510 13 293 32.2 56.3 0.00 4.04 1.22 37 999.5
20260504173027 13 274 25.7 48.3 0.00 4.06 1.22 39 999.7
20260504172510 12 236 25.7 51.5 0.00 4.11 1.22 39 999.8
20260504172011 12 231 29.0 53.1 0.00 4.11 1.22 41 999.8
20260504171542 12 285 32.2 53.1 0.00 4.14 1.22 41 999.9
20260504171012 12 255 33.8 45.1 0.00 4.17 1.22 43 1000.1
20260504170511 12 291 25.7 49.9 0.00 4.19 1.22 46 1000.1
20260504151010 10 252 33.8 51.5 0.00 4.22 1.22 62 999.4
20260504150504 10 246 32.2 51.5 0.00 4.22 1.22 62 999.4
20260504141011 8 277 32.2 53.1 0.00 4.24 1.22 69 999.0
20260504140510 9 283 24.1 54.7 0.00 4.24 1.22 70 998.9
20260504130511 6 281 27.4 57.9 0.00 4.32 1.22 78 998.5
20260504110507 5 297 22.5 35.4 0.00 4.32 1.22 86 997.0
20260504100510 4 279 29.0 53.1 0.00 4.32 1.22 89 995.9
20260504081524 3 38 30.6 62.8 0.08 4.22 1.14 94 993.5
20260504081009 3 319 37.0 62.8 0.08 4.22 1.14 94 993.4
20260504080508 3 328 35.4 51.5 0.08 4.22 1.12 94 993.3